Погода в Верхнеозерном

Россия / Оренбургская область     51°24′01″N   56°42′29″E
темп.,
°C
ветер,
м/с
пор.,
м/с
влажн.,
%
обл.,
%
осадки,
мм/ч
давл.,
гПа
погр.,
м
26 июля, пн
пн2623:00+17с410460 0.0 1017187
02:00+15с33570 0.0 101842
05:00+13ссв22620 0.0 101913
08:00+17св23500 0.0 1020235
11:00+22ссв33370 0.0 10201396
14:00+25ссз23264 0.0 10192444
17:00+25ссз44221 0.0 10172663
20:00+22ссз35331 0.0 1018128
27 июля, вт
вт2723:00+17ссв34380 0.0 101960
02:00+14ссв22460 0.0 101914
05:00+13ссв22540 0.0 101916
08:00+17ссв12483 0.0 1019195
11:00+23с34300 0.0 10182125
14:00+25сз34244 0.0 10162725
17:00+26ссз342214 0.0 10153010
20:00+23ссз123361 0.0 101419
28 июля, ср
ср2823:00+19св223963 0.0 101530
02:00+16сз11475 0.0 101411
05:00+14зсз11535 0.0 101410
08:00+18зсз24525 0.0 1014290
11:00+23сз57450 0.0 10131676
14:00+25ссз77291 0.0 10122308
17:00+25ссз67240 0.0 10122361
20:00+22ссз48290 0.0 1013245
29 июля, чт
чт2923:00+16ссв33400 0.0 101423
02:00+14св22510 0.0 101515
05:00+12в11540 0.0 101510
08:00+17вюв11430 0.0 1016158
11:00+23юз22300 0.0 10151373
14:00+26зюз342285 0.0 10142497
17:00+27юз3421100 0.0 10132836
20:00+24ююз3631100 0.0 1012126
30 июля, пт
пт3023:00+21ю3837100 0.0 1012168
02:00+21ююз31034100 0.0 1012273
05:00+18ююв3759100 0.2 1012160
08:00+23ю61237100 0.0 1011745
11:00+27юз61028100 0.1 10101618
14:00+31з7929100 0.0 10082898
17:00+26зсз8114685 0.1 1009821
20:00+24юз38548 0.1 1009241